STARLINK-2135 (47408 NORAD) Tracking and Keplerian Element Data

This shows tracking and keplerian element data for the satellite.

Feedback or suggestion? Click here.




ElementValue
Catalog47408
NameSTARLINK-2135
Epoch Orbit177
Epoch Day101.91668981
Epoch Year2021
RAAN171.9576
Inclination53.0534
Eccentricity0.0004203
Argument of Perigee8.5842
Mean Anonmoly144.1951
Mean Motion15.62828128
Decay Rate-0.00060978
L11 47408U 21005BM 21101.91668981 -.00060978 00000-0 -66282-3 0 9993
L22 47408 53.0534 171.9576 0004203 8.5842 144.1951 15.62828128 1770

Live tracking and technical data element details for STARLINK-2135 (NORAD 47408). STARLINK-2135 can be tracked NOW for your location showing map with azimuth and elevation plus other details from your city location.

Track the satellite on the map from your city or location and see movement details for azimuth, elevation, latitude, longitude, range, height, and movement on the map or in text.







IsCatalogInMostPopularTable: catalog: 47408, numindb: 19
Update: records affected: 1



GetName: 47408 STARLINK-2135

Hit Count: updated at: Tue, 13 Apr 2021 05:01:55 GMT